Home > Weather > Sochi > Past weeks

Flag for Russia Weather for the Past 2 Weeks in Sochi, Russia

Now
54 °F

Passing clouds.


Feels Like: 54 °F
Forecast: 43 / 67 °F
Wind: 1 mph from Southeast

Location: Adler

Current Time: Apr 29, 2016 at 5:49:06 AM

Latest Report: Apr 29, 2016 at 5:00 AM


Visibility: N/A

Pressure: 30.07 "Hg

Humidity: 82%

Dew Point: 48 °F

Location of SochiLocation

Historic Weather in Sochi — Graph

°F

Sochi Temperature Yesterday

Maximum temperature yesterday: 61 °F (at 3:00 PM)
Minimum temperature yesterday: 46 °F (at 5:00 AM)
Average temperature yesterday: 54 °F

High & Low Weather Summary for the Past Weeks

 TemperatureHumidityPressure
High82 °F (Apr 20, 6:30 PM)100% (Apr 15, 12:00 AM)30.39 "Hg (Apr 15, 12:00 AM)
Low41 °F (Apr 23, 3:30 AM)16% (Apr 20, 7:30 PM)29.45 "Hg (Apr 25, 4:30 AM)
Average58 °F68%29.96 "Hg
* Reported Apr 14 4:00 AM — Apr 29 4:30 AM, Sochi, Weather by CustomWeather, © 2016

Note: Actual official high and low records may vary slightly from our data, if they occured in-between our weather recording intervals... More about our weather records

Advertising

Sochi Weather History for the Previous 24 Hours

Scroll right to see more
 ConditionsComfort  
Time TempWeatherWind HumidityBarometerVisibility
4:30 AM
Fri, Apr 29
54 °FPassing clouds.No wind82%30.07 "HgN/A
4:00 AM54 °FPassing clouds.No wind82%30.07 "HgN/A
3:30 AM54 °FPassing clouds.1 mph82%30.07 "HgN/A
3:00 AM54 °FPassing clouds.No wind82%30.07 "HgN/A
2:30 AM52 °FPassing clouds.3 mph88%30.07 "HgN/A
2:00 AM52 °FPassing clouds.3 mph88%30.09 "HgN/A
1:30 AM54 °FPassing clouds.3 mph82%30.09 "HgN/A
1:00 AM54 °FPassing clouds.3 mph82%30.09 "HgN/A
12:00 AM54 °FPassing clouds.No wind82%30.09 "HgN/A
11:30 PM
Thu, Apr 28
54 °FPartly cloudy.3 mph82%30.09 "HgN/A
11:00 PM54 °FPartly cloudy.1 mph82%30.09 "HgN/A
10:30 PM54 °FPartly cloudy.1 mph82%30.09 "HgN/A
10:00 PM54 °FPartly cloudy.No wind82%30.09 "HgN/A
9:30 PM55 °FPassing clouds.No wind77%30.09 "HgN/A
9:00 PM55 °FPassing clouds.1 mph77%30.07 "HgN/A
8:30 PM54 °FPassing clouds.3 mph82%30.07 "HgN/A
8:00 PM55 °FPassing clouds.1 mph77%30.04 "HgN/A
7:30 PM55 °FPassing clouds.8 mph77%30.04 "HgN/A
7:00 PM55 °FPartly sunny.10 mph77%30.04 "HgN/A
6:30 PM57 °FScattered clouds.10 mph72%30.01 "HgN/A
6:00 PM57 °FClear.10 mph72%30.01 "HgN/A
5:30 PM57 °FClear.15 mph72%30.01 "HgN/A
5:00 PM57 °FPassing clouds.15 mph72%30.01 "HgN/A
4:30 PM59 °FPassing clouds.15 mph68%30.01 "HgN/A
4:00 PM59 °FPassing clouds.15 mph72%30.01 "HgN/A
3:30 PM59 °FPassing clouds.15 mph68%30.01 "HgN/A
3:00 PM61 °FPassing clouds.13 mph68%30.01 "HgN/A
2:00 PM59 °FPassing clouds.13 mph68%30.04 "HgN/A
1:30 PM59 °FPassing clouds.13 mph68%30.04 "HgN/A
1:00 PM59 °FPassing clouds.13 mph68%30.04 "HgN/A
12:30 PM59 °FPassing clouds.13 mph68%30.04 "HgN/A
12:00 PM59 °FPassing clouds.15 mph68%30.04 "HgN/A
11:00 AM59 °FPassing clouds.13 mph68%30.04 "HgN/A
10:30 AM57 °FClear.13 mph72%30.04 "HgN/A
8:30 AM55 °FPassing clouds.8 mph77%30.07 "HgN/A
8:00 AM55 °FScattered clouds.6 mph77%30.07 "HgN/A
7:00 AM52 °FScattered clouds.1 mph88%30.07 "HgN/A
6:30 AM48 °FScattered clouds.1 mph94%30.07 "HgN/A
6:00 AM46 °FScattered clouds.1 mph93%30.07 "HgN/A
5:00 AM46 °FPassing clouds.1 mph93%30.07 "HgN/A
Weather by CustomWeather, © 2016

See weather overviewHow to use our weather pages